Flag for Germany Weather for the Past 2 Weeks in Biberach an der Riss, Baden-Württemberg, Germany

Now
30 °F

Fog.


Feels Like: 30 °F
Forecast: 31 / 58 °F
Wind: 2 mph from Southwest

Location: Laupheim Airport

Current Time: Apr 29, 2016 at 4:58:56 AM

Latest Report: Apr 29, 2016 at 4:20 AM


Visibility: 5 mi

Pressure: 30.04 "Hg (28.08 "Hg at 536m altitude)

Humidity: 93%

Dew Point: 28 °F

Location of Biberach an der RissLocation

Historic Weather in Biberach an der Riss — Graph

°F

Biberach an der Riss Temperature Yesterday

Maximum temperature yesterday: 45 °F (at 11:20 AM)
Minimum temperature yesterday: 28 °F (at 4:20 AM)
Average temperature yesterday: 38 °F

High & Low Weather Summary for the Past Weeks

 TemperatureHumidityPressure
High64 °F (Apr 21, 3:20 PM)100% (Apr 16, 4:20 AM)30.36 "Hg (Apr 16, 4:20 AM)
Low28 °F (Apr 28, 4:20 AM)37% (Apr 21, 4:20 PM)29.59 "Hg (Apr 26, 7:20 AM)
Average44 °F76%29.93 "Hg
* Reported Apr 14 2:20 AM — Apr 29 2:20 AM, Biberach an der Riss, Weather by CustomWeather, © 2016

Note: Actual official high and low records may vary slightly from our data, if they occured in-between our weather recording intervals... More about our weather records

Advertising

Biberach an der Riss Weather History for the Previous 24 Hours

Scroll right to see more
 ConditionsComfort  
Time TempWeatherWind HumidityBarometerVisibility
2:20 AM
Fri, Apr 29
32 °FPassing clouds.1 mph93%30.04 "HgN/A
1:20 AM32 °FPassing clouds.2 mph93%30.04 "HgN/A
12:20 AM34 °FPassing clouds.2 mph87%30.04 "HgN/A
11:20 PM
Thu, Apr 28
39 °FPassing clouds.2 mph70%30.04 "HgN/A
10:20 PM37 °FPassing clouds.5 mph81%30.04 "HgN/A
9:20 PM41 °FPassing clouds.3 mph76%30.01 "HgN/A
8:20 PM43 °FPassing clouds.2 mph66%30.01 "HgN/A
7:20 PM45 °FScattered clouds.1 mph57%30.01 "HgN/A
6:20 PM45 °FScattered clouds.5 mph61%30.01 "HgN/A
5:20 PM41 °FSnow flurries. Partly sunny.5 mph76%30.01 "HgN/A
4:52 PM41 °FRain showers. Broken clouds.9 mph70%30.01 "Hg4 mi
4:20 PM45 °FScattered showers. Scattered clouds.3 mph53%29.98 "HgN/A
3:20 PM45 °FScattered showers. Scattered clouds.12 mph57%29.98 "HgN/A
2:20 PM39 °FScattered clouds.10 mph81%29.98 "HgN/A
1:49 PM39 °FSprinkles. Broken clouds.20 mph75%29.98 "HgN/A
1:20 PM45 °FScattered showers. Scattered clouds.6 mph66%29.98 "HgN/A
12:53 PM41 °FSprinkles. Broken clouds.7 mph66%29.98 "HgN/A
11:20 AM45 °FScattered clouds.10 mph49%29.95 "HgN/A
10:20 AM41 °FScattered clouds.7 mph66%29.95 "HgN/A
9:20 AM37 °FScattered clouds.8 mph75%29.95 "HgN/A
7:20 AM30 °FBroken clouds.2 mph86%29.95 "HgN/A
6:20 AM28 °FPartly cloudy.1 mph93%29.92 "HgN/A
5:20 AM28 °FPassing clouds.3 mph93%29.92 "HgN/A
4:20 AM28 °FPassing clouds.3 mph93%29.92 "HgN/A
Weather by CustomWeather, © 2016

See weather overviewHow to use our weather pages